GFSGL_925_thetae_021.txt.gz
Theta_e
292 293 293 293 294 294 294 294 294 295 294 294 295 293 291 291 290 290 288 288 288 287 287 288 287 287 286 285 285 284 284 284 286 280 281 280 279 279 279 279 279 279 280
290 291 292 293 292 292 293 293 293 293 294 293 293 292 290 290 290 289 288 287 286 285 286 286 286 285 284 284 284 283 283 283 283 282 280 279 279 280 280 280 280 280 280
289 290 290 291 291 290 290 291 292 292 292 292 292 291 290 289 288 288 287 286 286 286 286 285 284 284 283 283 283 282 282 282 281 280 280 279 279 280 280 280 280 280 281
288 289 289 289 290 290 290 290 290 291 290 290 290 290 290 289 288 287 286 285 285 285 285 285 284 284 283 282 282 282 281 279 279 278 277 277 277 278 278 278 279 278 278
288 288 288 288 288 288 290 289 289 289 289 289 289 288 288 288 288 286 286 285 284 283 283 283 284 284 284 284 283 280 279 278 277 277 277 277 277 278 278 278 278 277 277
287 287 288 287 287 286 288 289 289 288 288 288 287 287 287 286 286 286 286 284 283 283 282 282 282 282 282 283 283 283 283 279 277 277 277 277 278 278 278 278 277 278 279
285 286 287 286 285 285 286 287 288 288 287 287 286 286 286 286 286 285 285 284 283 283 282 281 280 280 281 281 281 280 280 279 279 278 277 278 279 278 278 277 278 278 278
283 283 283 281 282 284 284 284 285 286 286 286 285 285 285 285 285 286 286 284 283 282 282 281 280 280 280 280 280 280 279 279 278 278 278 279 279 277 277 278 278 277 275
281 280 280 279 281 283 283 282 283 284 284 284 285 285 284 284 285 285 286 285 282 282 281 280 280 279 280 280 280 280 279 278 279 280 280 279 278 278 279 278 277 274 273
279 278 278 277 280 278 279 281 281 282 283 283 283 283 284 284 284 284 285 286 282 281 280 279 279 279 279 280 279 280 280 279 279 279 278 278 280 278 277 275 274 272 272
277 276 275 275 276 276 277 279 281 281 282 282 282 282 282 282 282 283 285 286 283 281 279 278 278 279 279 281 279 279 279 278 278 277 277 278 276 275 274 273 273 273 272
275 274 273 272 272 273 274 276 279 280 280 281 281 281 281 281 281 282 284 286 283 281 279 278 278 279 280 281 280 277 278 277 277 277 276 275 273 273 272 272 272 271 272
272 271 271 270 271 271 272 274 276 279 279 280 280 280 280 278 279 281 282 285 283 280 279 278 278 280 281 282 281 278 278 278 276 275 274 274 272 272 271 271 271 270 270
270 269 269 269 269 269 270 272 275 279 280 279 280 279 280 278 278 278 280 282 284 281 279 278 279 280 281 281 282 281 278 278 277 275 274 273 271 270 270 270 270 269 269
267 267 267 267 267 268 269 271 273 275 279 279 280 280 280 279 278 278 279 281 283 280 278 278 279 280 280 280 281 278 278 277 275 274 272 270 270 269 270 269 269 269 268
265 265 265 265 266 266 267 269 270 273 277 280 281 281 280 280 280 279 280 281 283 280 278 278 279 280 279 278 275 273 273 274 272 272 270 269 269 269 269 268 268 268 268
263 263 263 263 264 265 266 268 269 270 273 278 280 281 283 282 280 280 281 282 284 280 278 278 279 279 276 275 273 272 271 271 271 270 269 268 268 268 267 267 267 267 267
261 262 262 263 263 264 266 267 268 270 272 276 278 279 281 283 282 281 280 282 284 281 278 278 277 276 273 273 272 271 270 269 269 268 268 267 267 267 266 266 266 266 266
261 261 262 262 263 264 265 266 267 268 270 273 277 278 279 283 283 281 281 282 283 281 277 276 274 274 273 272 271 270 269 268 267 267 267 267 267 267 266 266 265 265 265
262 262 263 263 264 264 265 265 267 268 270 274 276 277 278 280 282 280 281 281 282 279 274 274 273 272 271 270 269 268 267 267 267 266 266 266 266 266 266 266 265 265 265
262 263 263 263 264 264 265 266 267 270 272 275 275 276 277 279 281 279 280 280 275 274 272 271 270 269 268 269 268 268 268 267 266 266 266 266 266 266 266 266 265 265 264
263 264 264 265 266 267 267 268 269 271 274 274 274 275 277 280 279 277 273 271 270 270 272 271 269 269 268 269 269 268 267 267 266 266 266 266 267 267 266 266 266 265 264
264 264 265 267 269 270 272 272 273 273 273 274 274 272 272 269 269 268 267 268 268 269 270 271 270 268 269 269 268 268 267 267 267 266 266 266 267 267 266 266 266 265 264
263 264 265 266 267 268 268 269 270 269 269 268 267 266 266 265 265 265 265 266 267 268 269 269 269 268 267 267 266 266 266 266 266 266 266 266 267 267 266 266 266 266 265
262 263 264 264 265 266 266 266 265 265 265 264 264 263 263 263 263 263 263 265 266 267 267 267 267 266 266 266 266 266 265 265 265 266 266 266 267 267 267 266 266 266 265
261 261 262 262 263 263 263 264 263 263 263 263 262 262 262 261 261 262 263 265 266 266 266 265 265 265 265 265 264 264 265 265 265 266 266 266 266 267 267 267 267 266 265

GFSGL_925_thetae_024.txt.gz
Theta_e
290 290 291 292 292 292 292 292 292 292 293 293 293 293 292 292 291 290 290 291 290 289 289 289 289 289 289 289 289 289 289 289 295 286 286 285 284 283 282 281 282 282 282
289 289 290 290 290 291 291 291 291 291 291 291 292 292 291 291 290 290 290 290 289 289 289 288 288 288 288 288 287 287 287 287 289 286 283 283 283 282 281 281 281 282 281
288 288 288 288 288 288 288 289 290 290 290 290 290 290 290 290 290 289 289 289 289 288 288 287 287 287 287 286 286 286 286 286 286 287 283 281 280 280 279 279 280 280 280
286 287 287 287 287 286 286 287 288 289 289 289 289 289 289 289 289 289 288 288 288 287 288 287 287 286 286 286 285 285 285 284 284 284 285 281 280 280 280 281 281 281 281
285 285 286 286 285 284 285 285 285 286 288 288 288 288 288 288 288 287 287 287 288 287 286 286 286 286 286 286 285 285 284 284 283 283 283 281 280 279 280 281 282 282 281
283 284 284 284 283 281 283 284 284 284 285 286 287 287 287 287 287 287 287 286 286 287 286 285 285 285 285 285 285 285 285 284 283 283 283 282 281 281 281 281 281 281 284
282 282 282 282 281 280 282 282 282 283 283 284 285 286 286 286 286 287 287 287 286 286 286 286 285 284 283 284 284 284 284 284 285 283 283 282 282 281 281 281 280 281 281
281 281 281 280 280 279 281 280 280 281 282 283 283 284 286 286 286 286 287 287 287 286 286 285 285 284 282 283 283 284 283 283 283 282 282 282 282 281 281 280 280 280 280
281 281 280 279 278 277 278 278 278 279 281 282 282 283 284 285 286 286 286 286 287 286 285 285 285 284 283 282 283 284 282 281 282 281 280 280 280 280 280 279 279 279 278
280 280 279 277 276 276 276 276 276 277 278 280 281 282 283 283 284 285 286 286 286 287 286 284 284 283 283 282 283 283 282 281 280 280 279 280 280 280 279 279 279 278 277
279 278 277 276 275 274 274 274 274 275 276 278 280 281 282 282 283 284 285 285 286 287 287 285 283 283 283 282 283 282 283 281 280 280 280 280 279 279 280 279 278 276 276
277 276 275 274 273 272 272 272 272 273 275 276 278 280 281 282 282 283 284 285 285 286 287 285 283 281 282 282 283 282 282 281 280 281 280 279 278 277 277 277 275 274 274
274 273 272 271 271 270 270 271 271 272 273 275 278 280 281 282 282 282 283 284 284 285 286 284 282 281 282 282 283 283 282 281 280 280 280 279 278 276 275 274 273 273 273
270 269 269 269 269 268 268 269 270 271 273 274 277 280 281 281 281 281 281 281 283 284 285 283 282 281 281 282 282 284 282 280 280 279 278 277 275 274 273 273 272 272 271
266 266 266 266 266 266 266 267 268 269 270 272 274 276 278 280 281 281 280 280 281 282 283 281 281 281 281 282 282 282 280 278 278 277 276 274 273 272 272 271 271 271 271
263 263 263 263 264 264 264 265 266 267 269 271 273 274 276 278 280 281 282 282 282 282 281 281 281 281 281 282 283 281 279 277 277 275 274 273 272 272 271 271 271 271 271
262 262 262 262 263 263 264 264 265 265 266 269 271 273 275 277 280 283 283 283 282 283 281 281 281 281 282 282 282 278 277 277 274 274 273 272 272 271 271 271 270 270 270
262 262 262 262 262 263 263 264 264 265 266 267 268 270 273 278 281 283 284 283 282 283 283 281 281 281 281 281 277 276 275 273 273 272 272 271 271 270 270 270 270 270 269
262 263 263 263 263 263 263 263 264 265 266 267 267 269 271 274 279 280 282 283 282 283 283 280 280 280 279 277 276 274 273 273 272 271 270 270 269 269 269 269 269 268 268
263 263 264 264 264 264 264 265 265 266 266 267 268 270 271 276 278 279 283 283 282 282 282 280 278 276 276 275 274 272 272 270 270 269 268 268 267 268 268 268 268 268 268
263 264 264 264 264 265 265 266 266 266 267 268 269 271 275 277 278 279 282 282 282 281 277 275 275 274 273 272 271 270 269 268 268 267 267 267 267 267 267 267 267 267 267
264 264 264 265 266 267 268 269 270 269 268 269 271 274 275 276 278 279 276 275 275 274 273 273 274 272 271 270 269 268 268 267 267 267 267 267 266 266 265 266 266 266 267
263 264 264 265 266 267 269 269 270 272 272 273 272 272 271 271 270 270 269 270 271 271 271 271 270 269 269 269 269 268 268 268 269 269 268 267 266 265 265 265 265 265 266
262 263 264 264 265 265 266 267 267 267 267 267 266 266 265 265 265 264 265 266 267 267 267 268 268 269 268 267 268 269 270 269 269 269 268 267 266 266 265 265 265 265 265
261 262 263 263 263 264 264 265 265 265 265 265 264 264 264 263 263 262 263 264 264 265 266 266 267 268 268 268 268 268 268 268 267 267 266 266 266 266 266 266 266 265 265
260 260 261 261 262 262 262 263 263 263 263 263 263 263 262 262 262 262 262 263 264 265 266 267 267 267 267 267 267 268 267 266 266 266 266 266 266 266 266 266 266 265 265

GFSGL_925_thetae_030.txt.gz
Theta_e
287 288 288 287 286 285 285 285 285 285 285 286 289 291 291 291 293 294 294 295 295 295 295 294 294 294 295 295 295 296 296 296 293 292 292 290 290 289 289 289 288 286 285
286 286 286 286 285 285 284 284 284 285 284 284 284 285 287 290 291 291 292 293 294 294 294 294 293 293 294 294 294 294 294 294 296 289 290 289 290 289 289 288 288 286 285
286 285 285 285 285 285 284 283 283 283 284 284 284 284 284 284 287 290 290 290 291 292 293 292 292 292 292 292 292 292 292 292 293 294 289 289 288 288 288 287 287 285 284
286 285 285 284 284 283 283 283 282 282 282 283 283 283 283 284 284 284 286 289 289 289 290 291 291 291 291 291 291 291 291 290 291 291 290 287 288 287 286 284 283 284 283
286 285 285 284 284 284 284 283 282 282 281 282 281 282 282 283 283 284 285 285 288 289 288 289 289 290 290 290 290 290 289 289 289 290 289 285 285 284 284 283 283 282 282
286 285 284 284 284 283 283 282 282 281 281 281 280 281 281 281 282 284 286 286 287 287 287 288 288 288 288 289 289 290 289 289 290 289 290 287 285 285 285 283 283 282 282
285 285 284 283 283 282 282 282 281 280 280 279 279 280 280 280 282 283 284 285 286 286 286 286 287 287 287 287 287 288 289 289 289 289 289 289 286 284 284 283 283 284 285
283 283 283 283 282 282 282 281 280 280 279 278 278 278 278 278 280 281 282 284 284 285 285 286 286 287 287 287 287 286 287 288 289 289 289 289 288 285 285 285 285 284 284
281 281 281 280 280 280 279 279 279 279 278 277 277 276 276 277 277 279 280 281 283 283 284 285 285 286 286 287 287 286 286 286 286 288 289 289 288 288 285 284 283 283 281
278 277 277 276 276 276 276 276 277 277 277 276 276 275 275 274 275 276 277 279 281 282 283 284 285 285 286 287 287 287 286 286 285 286 287 288 289 288 286 284 284 284 284
274 272 271 271 270 270 270 270 271 271 272 272 273 272 272 272 272 273 275 277 279 281 282 283 284 285 286 287 287 287 287 286 285 286 286 286 287 287 286 284 285 285 284
269 268 267 266 265 266 266 266 266 267 268 269 269 270 270 271 271 272 274 276 277 280 281 283 283 284 285 286 287 288 288 287 285 285 285 285 285 285 285 284 283 284 284
266 265 264 264 264 264 264 264 264 264 265 266 267 267 268 268 269 270 272 274 276 278 280 283 284 284 285 285 286 287 288 288 286 285 285 284 284 284 283 282 282 282 282
264 263 263 263 263 263 263 264 264 264 264 264 265 265 265 266 266 267 268 270 271 274 279 281 283 283 283 284 285 287 288 287 286 285 284 284 283 282 282 281 280 279 278
263 263 263 263 263 263 263 263 264 264 265 266 267 267 268 268 268 269 270 271 271 272 275 278 281 281 281 282 284 286 286 286 285 285 284 283 281 281 281 280 279 278 278
262 263 262 262 262 262 262 263 264 265 266 267 268 269 269 270 270 271 271 272 272 273 275 276 278 280 281 282 284 284 284 285 285 284 283 282 281 281 279 278 277 277 277
262 262 262 262 262 262 263 263 263 264 265 266 267 268 269 269 270 270 271 272 272 274 275 276 277 278 281 282 283 283 283 283 284 284 282 282 279 278 276 276 275 276 275
262 262 261 261 262 262 263 264 264 265 265 265 266 267 268 270 270 271 272 272 272 273 274 276 276 278 280 282 282 282 282 282 283 282 281 278 278 276 276 276 275 275 275
262 262 262 262 262 263 264 265 265 265 266 266 267 267 268 269 270 271 272 273 273 273 273 274 277 278 280 282 282 282 282 281 280 279 278 277 277 276 276 275 275 274 274
261 262 262 262 263 263 264 265 265 266 267 268 268 268 270 269 269 270 271 272 273 273 274 276 279 281 282 282 281 282 280 279 278 277 276 276 275 275 274 274 273 273 273
261 261 261 262 262 263 264 265 265 266 266 267 267 267 269 268 267 268 269 270 271 272 277 278 280 282 282 281 280 279 278 277 276 275 275 274 274 273 273 272 272 272 271
261 260 261 261 262 262 263 264 264 265 265 265 265 265 266 265 265 266 266 267 267 268 272 276 278 278 278 277 277 276 275 274 273 273 273 272 272 272 271 270 270 270 270
261 260 260 260 261 261 262 263 263 263 264 264 264 264 264 264 263 264 264 265 266 268 270 271 271 272 273 274 274 274 272 271 271 271 271 271 270 270 270 270 270 269 269
261 260 260 260 260 261 261 262 262 263 263 263 263 263 263 263 263 263 263 263 264 265 266 268 269 270 271 271 272 272 271 271 271 270 270 270 269 269 269 269 268 268 268
260 260 260 260 260 260 260 260 261 262 262 263 263 263 263 263 263 262 262 262 262 263 264 265 266 267 268 269 269 269 269 269 269 269 269 269 268 268 268 268 268 268 268
260 260 259 259 259 259 260 260 260 260 260 261 261 261 261 261 262 262 262 263 263 263 264 264 265 265 265 265 266 267 267 268 268 268 268 268 268 267 268 267 267 267 267

GFSGL_925_thetae_033.txt.gz
Theta_e
286 285 285 285 285 285 284 284 284 284 284 284 284 284 284 284 286 290 292 292 293 293 294 294 294 295 295 295 294 294 294 293 294 296 294 294 293 292 291 290 290 289 290
286 285 285 285 284 284 284 284 284 284 284 284 284 284 283 283 284 284 285 287 290 290 291 292 293 293 293 293 293 293 293 293 293 294 294 292 291 291 292 291 290 289 289
286 286 285 285 285 284 284 284 284 283 283 283 284 284 284 283 283 283 283 284 284 286 289 290 290 291 292 291 291 292 291 292 292 292 293 291 290 290 289 289 289 289 289
286 286 285 285 284 284 283 283 282 282 282 282 282 282 282 282 283 283 283 283 284 285 285 286 288 289 289 290 290 290 290 291 290 291 292 289 289 289 288 287 285 287 288
288 287 286 285 284 283 283 282 282 281 281 281 280 280 280 280 281 281 283 283 284 284 284 284 285 285 288 289 289 289 289 289 290 289 290 287 287 287 286 286 285 284 284
286 285 285 284 283 282 282 281 281 281 280 280 279 279 279 279 280 281 282 283 283 283 284 284 284 284 284 285 288 289 289 289 288 289 290 290 288 287 286 286 285 284 283
284 284 282 282 281 281 281 281 280 280 279 279 279 278 278 278 278 279 280 280 281 282 283 283 284 284 285 285 285 287 288 289 290 289 289 290 290 288 286 285 284 286 287
281 280 279 279 279 278 278 277 277 277 277 277 278 278 278 277 277 278 278 278 279 279 280 282 283 283 284 285 285 286 286 287 288 289 290 289 289 290 288 287 286 286 286
277 277 277 275 274 273 272 272 272 272 272 273 274 275 276 276 276 276 277 276 276 276 277 278 280 281 283 284 285 286 286 286 286 287 288 289 290 289 289 285 285 284 285
275 274 272 270 270 269 268 267 267 268 268 269 269 270 270 270 271 272 273 273 274 274 275 276 277 279 281 283 284 285 286 286 286 286 286 287 288 289 289 287 285 285 285
271 269 268 267 266 265 265 265 265 265 265 265 265 266 266 267 268 269 270 272 273 274 274 275 276 278 280 282 283 285 285 286 286 286 285 286 286 287 288 289 286 286 286
268 266 266 265 264 264 263 263 263 263 263 264 264 264 265 266 266 267 269 270 271 272 273 274 275 276 278 280 282 284 286 287 287 287 286 286 286 286 286 287 287 285 286
265 265 264 264 264 263 263 262 263 263 263 263 264 264 264 265 265 266 267 268 269 269 270 270 272 274 275 279 282 284 285 286 287 287 287 286 285 285 286 286 287 285 284
264 264 263 263 263 263 263 262 263 263 263 263 264 264 265 265 266 267 267 267 267 269 269 270 270 272 274 275 279 283 285 285 285 286 287 286 285 285 285 285 284 283 281
263 263 263 263 263 262 262 262 263 263 264 266 267 268 269 269 269 270 272 272 272 272 272 271 271 273 274 274 279 282 282 283 283 284 286 286 285 284 284 283 283 280 282
263 263 262 263 263 262 262 262 263 264 266 267 268 269 269 270 271 271 272 273 273 273 273 273 273 273 273 274 275 280 280 281 282 284 286 286 284 283 283 282 282 280 281
262 262 262 262 262 262 262 262 263 263 265 266 267 268 269 270 271 272 273 273 274 274 274 273 272 272 273 274 276 277 281 282 283 284 285 285 283 282 282 281 280 280 280
262 262 261 262 262 262 262 262 263 264 264 264 265 267 269 269 270 272 273 274 273 273 273 272 272 272 273 274 276 278 279 281 282 283 284 284 283 282 281 280 279 279 279
262 261 261 261 262 261 262 262 263 264 264 264 265 266 265 266 268 269 269 269 270 270 271 272 272 272 272 273 276 277 279 281 281 282 283 283 281 280 279 279 278 278 278
262 261 261 261 260 261 261 262 263 263 264 264 264 264 264 267 265 264 265 266 267 268 268 268 271 273 273 274 275 277 279 280 281 281 281 280 279 279 278 278 277 277 276
261 261 261 260 260 260 261 261 262 263 263 263 263 263 267 265 263 263 264 264 265 265 266 268 274 274 276 277 277 279 281 281 280 279 278 278 277 277 277 276 275 275 275
261 261 261 260 260 260 260 261 261 262 263 263 263 263 265 263 263 263 263 263 263 264 264 266 268 270 272 275 277 279 279 278 277 277 276 275 275 274 274 274 274 273 272
261 260 260 261 260 260 260 260 260 261 262 262 262 263 263 263 263 263 262 262 262 263 264 265 266 268 270 272 273 274 274 273 274 274 274 273 273 272 272 272 272 272 272
260 260 260 260 259 260 260 260 260 260 260 261 261 261 262 262 262 262 262 262 262 263 263 264 265 266 268 269 270 271 272 272 272 272 273 272 271 271 271 271 270 270 270
260 260 260 259 259 259 259 259 259 260 260 260 260 260 260 261 261 261 262 262 263 263 264 264 264 265 266 267 268 269 269 270 271 271 271 271 270 270 269 269 269 269 269
260 260 259 259 259 259 258 258 259 259 259 259 259 259 259 260 260 260 261 262 262 263 264 265 265 266 267 267 267 267 268 268 269 269 269 269 269 268 268 268 268 268 268